JAL528 RJCC-RJTT

Flight info

Callsign JAL528
Flight time 1h 34m
Altitude 36000
Route TOBBY Y10 DAIGO Y108 MESSE
Aircraft A359/H-SDE2E3GHIJ1J3J4J5LM1ORWXYZ/LB1D1

Departure

Time 2026-05-08 13:19
Airport New Chitose Airport (RJCC)

Arrival

Time 2026-05-08 14:53
Airport Tokyo Haneda International Airport (RJTT)
Time Latitude Longitude Altitude Speed Heading
2026-05-08 12:23 42.78608 141.68246 94 ft 0 kts 296°
2026-05-08 13:10 42.78607 141.68249 97 ft 1 kts 296°
2026-05-08 13:10 42.78599 141.68271 95 ft 3 kts 296°
2026-05-08 13:11 42.78589 141.68295 95 ft 3 kts 296°
2026-05-08 13:11 42.78581 141.68318 94 ft 3 kts 304°
2026-05-08 13:11 42.78570 141.68337 93 ft 3 kts 326°
2026-05-08 13:11 42.78557 141.68347 94 ft 3 kts 354°
2026-05-08 13:12 42.78541 141.68347 94 ft 3 kts 21°
2026-05-08 13:12 42.78524 141.68336 94 ft 2 kts 32°
2026-05-08 13:12 42.78519 141.68332 94 ft 0 kts 33°
2026-05-08 13:15 42.78520 141.68333 94 ft 2 kts 33°
2026-05-08 13:15 42.78561 141.68363 94 ft 9 kts 25°
2026-05-08 13:15 42.78627 141.68393 93 ft 10 kts 15°
2026-05-08 13:16 42.78698 141.68412 93 ft 11 kts
2026-05-08 13:16 42.78755 141.68423 93 ft 7 kts 11°
2026-05-08 13:16 42.78789 141.68468 92 ft 8 kts 65°
2026-05-08 13:16 42.78799 141.68538 97 ft 5 kts 82°
2026-05-08 13:17 42.78803 141.68581 97 ft 5 kts 82°
2026-05-08 13:17 42.78810 141.68642 98 ft 2 kts 82°
2026-05-08 13:17 42.78814 141.68682 96 ft 7 kts 81°
2026-05-08 13:17 42.78822 141.68763 96 ft 9 kts 87°
2026-05-08 13:18 42.78790 141.68813 96 ft 8 kts 153°
2026-05-08 13:18 42.78730 141.68830 97 ft 10 kts 173°
2026-05-08 13:18 42.78628 141.68848 97 ft 25 kts 172°
2026-05-08 13:18 42.78209 141.68922 94 ft 96 kts 172°
2026-05-08 13:19 42.77346 141.69076 99 ft 154 kts 173°
2026-05-08 13:19 42.76297 141.69281 879 ft 145 kts 172°
2026-05-08 13:19 42.75334 141.69494 1689 ft 138 kts 169°
2026-05-08 13:19 42.74383 141.69662 2271 ft 135 kts 172°
2026-05-08 13:20 42.73464 141.69857 2815 ft 138 kts 165°
2026-05-08 13:20 42.72572 141.70530 3120 ft 158 kts 143°
2026-05-08 13:20 42.71714 141.71616 3393 ft 179 kts 140°
2026-05-08 13:20 42.70753 141.72877 3629 ft 204 kts 140°
2026-05-08 13:21 42.69674 141.74283 3963 ft 225 kts 140°
2026-05-08 13:21 42.68500 141.75812 4338 ft 242 kts 139°
2026-05-08 13:21 42.67251 141.77436 4863 ft 253 kts 140°
2026-05-08 13:21 42.66003 141.79168 5468 ft 261 kts 136°
2026-05-08 13:22 42.64789 141.81045 6103 ft 267 kts 135°
2026-05-08 13:22 42.63567 141.82965 6736 ft 271 kts 135°
2026-05-08 13:22 42.62325 141.84910 7418 ft 273 kts 135°
2026-05-08 13:22 42.61070 141.86873 8127 ft 276 kts 135°
2026-05-08 13:23 42.59807 141.88845 8821 ft 279 kts 136°
2026-05-08 13:23 42.58531 141.90835 9527 ft 282 kts 136°
2026-05-08 13:23 42.57217 141.92824 10153 ft 284 kts 140°
2026-05-08 13:23 42.55608 141.94383 10474 ft 289 kts 161°
2026-05-08 13:24 42.53620 141.94908 10779 ft 294 kts 185°
2026-05-08 13:24 42.51576 141.94454 11124 ft 303 kts 196°
2026-05-08 13:24 42.49493 141.93756 11590 ft 311 kts 197°
2026-05-08 13:24 42.47377 141.93071 12148 ft 315 kts 196°
2026-05-08 13:25 42.45236 141.92395 12747 ft 318 kts 197°
2026-05-08 13:25 42.43069 141.91718 13352 ft 320 kts 197°
2026-05-08 13:25 42.40890 141.91040 13894 ft 322 kts 197°
2026-05-08 13:25 42.38693 141.90358 14437 ft 324 kts 197°
2026-05-08 13:26 42.36492 141.89678 14983 ft 326 kts 196°
2026-05-08 13:26 42.35021 141.89224 15348 ft 327 kts 196°
2026-05-08 13:26 42.32802 141.88539 15906 ft 328 kts 196°
2026-05-08 13:26 42.30563 141.87861 16475 ft 329 kts 195°
2026-05-08 13:27 42.28328 141.87194 17022 ft 330 kts 195°
2026-05-08 13:27 42.26075 141.86524 17568 ft 331 kts 194°
2026-05-08 13:27 42.23819 141.85854 18089 ft 333 kts 194°
2026-05-08 13:27 42.20813 141.84961 18667 ft 335 kts 194°
2026-05-08 13:28 42.19277 141.84505 18967 ft 336 kts 194°
2026-05-08 13:28 42.16989 141.83826 19404 ft 337 kts 193°
2026-05-08 13:28 42.14696 141.83144 19712 ft 339 kts 193°
2026-05-08 13:28 42.12382 141.82456 20143 ft 340 kts 193°
2026-05-08 13:29 42.10077 141.81771 20581 ft 341 kts 193°
2026-05-08 13:29 42.07747 141.81079 21011 ft 342 kts 192°
2026-05-08 13:29 42.05450 141.80398 21425 ft 344 kts 192°
2026-05-08 13:29 42.03109 141.79704 21827 ft 346 kts 192°
2026-05-08 13:30 42.00748 141.79006 22226 ft 347 kts 192°
2026-05-08 13:30 41.98385 141.78306 22613 ft 349 kts 192°
2026-05-08 13:30 41.95996 141.77600 22998 ft 351 kts 192°
2026-05-08 13:30 41.93602 141.76893 23351 ft 353 kts 192°
2026-05-08 13:31 41.91194 141.76183 23689 ft 354 kts 192°
2026-05-08 13:31 41.88786 141.75477 24032 ft 355 kts 192°
2026-05-08 13:31 41.86369 141.74763 24383 ft 355 kts 193°
2026-05-08 13:31 41.83956 141.74050 24731 ft 356 kts 193°
2026-05-08 13:32 41.81541 141.73337 25086 ft 356 kts 194°
2026-05-08 13:32 41.79112 141.72620 25430 ft 357 kts 194°
2026-05-08 13:32 41.76683 141.71905 25786 ft 358 kts 194°
2026-05-08 13:32 41.74251 141.71190 26152 ft 358 kts 195°
2026-05-08 13:33 41.71812 141.70475 26537 ft 359 kts 195°
2026-05-08 13:33 41.69394 141.69766 26916 ft 360 kts 196°
2026-05-08 13:33 41.66914 141.69039 27324 ft 361 kts 197°
2026-05-08 13:33 41.64462 141.68322 27751 ft 361 kts 197°
2026-05-08 13:34 41.62003 141.67602 28203 ft 362 kts 197°
2026-05-08 13:34 41.59571 141.66891 28611 ft 363 kts 198°
2026-05-08 13:34 41.57092 141.66167 29031 ft 364 kts 198°
2026-05-08 13:34 41.54613 141.65444 29444 ft 365 kts 198°
2026-05-08 13:35 41.52121 141.64717 29836 ft 367 kts 199°
2026-05-08 13:35 41.49623 141.63988 30167 ft 369 kts 199°
2026-05-08 13:35 41.47101 141.63254 30474 ft 371 kts 199°
2026-05-08 13:35 41.44572 141.62518 30794 ft 374 kts 199°
2026-05-08 13:36 41.42025 141.61777 31129 ft 376 kts 199°
2026-05-08 13:36 41.39458 141.61032 31469 ft 378 kts 199°
2026-05-08 13:36 41.36877 141.60283 31783 ft 380 kts 199°
2026-05-08 13:36 41.34291 141.59533 32075 ft 382 kts 199°
2026-05-08 13:37 41.31676 141.58775 32372 ft 384 kts 199°
2026-05-08 13:37 41.29057 141.58017 32663 ft 386 kts 199°
2026-05-08 13:37 41.26422 141.57255 32942 ft 388 kts 199°
2026-05-08 13:37 41.23772 141.56490 33218 ft 390 kts 199°
2026-05-08 13:38 41.21111 141.55722 33482 ft 392 kts 199°
2026-05-08 13:38 41.18471 141.54960 33727 ft 394 kts 199°
2026-05-08 13:38 41.15783 141.54186 33930 ft 396 kts 199°
2026-05-08 13:38 41.13086 141.53409 34180 ft 397 kts 199°
2026-05-08 13:39 41.10387 141.52633 34443 ft 397 kts 199°
2026-05-08 13:39 41.07675 141.51854 34699 ft 398 kts 199°
2026-05-08 13:39 41.04967 141.51076 34948 ft 399 kts 199°
2026-05-08 13:39 41.02256 141.50299 35208 ft 399 kts 199°
2026-05-08 13:40 40.99534 141.49518 35457 ft 400 kts 199°
2026-05-08 13:40 40.96803 141.48735 35632 ft 400 kts 199°
2026-05-08 13:40 40.91382 141.47186 35660 ft 402 kts 199°
2026-05-08 13:41 40.85883 141.45609 35655 ft 405 kts 199°
2026-05-08 13:41 40.80373 141.44040 35662 ft 405 kts 199°
2026-05-08 13:42 40.74910 141.42487 35662 ft 404 kts 199°
2026-05-08 13:42 40.69417 141.40927 35662 ft 403 kts 199°
2026-05-08 13:43 40.63943 141.39373 35660 ft 403 kts 199°
2026-05-08 13:43 40.58458 141.37819 35660 ft 403 kts 199°
2026-05-08 13:44 40.52977 141.36267 35661 ft 403 kts 199°
2026-05-08 13:44 40.47494 141.34719 35660 ft 403 kts 199°
2026-05-08 13:45 40.42014 141.33174 35665 ft 403 kts 199°
2026-05-08 13:45 40.36527 141.31630 35668 ft 403 kts 199°
2026-05-08 13:46 40.31035 141.30088 35662 ft 403 kts 199°
2026-05-08 13:46 40.25583 141.28558 35669 ft 403 kts 200°
2026-05-08 13:47 40.20064 141.27012 35677 ft 403 kts 200°
2026-05-08 13:47 40.14582 141.25480 35681 ft 403 kts 200°
2026-05-08 13:48 40.09106 141.23950 35688 ft 402 kts 200°
2026-05-08 13:48 40.03658 141.22433 35691 ft 402 kts 200°
2026-05-08 13:49 39.98187 141.20917 35696 ft 402 kts 200°
2026-05-08 13:49 39.92727 141.19400 35698 ft 401 kts 200°
2026-05-08 13:50 39.87256 141.17880 35703 ft 401 kts 200°
2026-05-08 13:50 39.81797 141.16369 35707 ft 400 kts 200°
2026-05-08 13:51 39.76350 141.14863 35713 ft 399 kts 200°
2026-05-08 13:51 39.70950 141.13373 35716 ft 399 kts 200°
2026-05-08 13:52 39.65528 141.11879 35725 ft 398 kts 200°
2026-05-08 13:52 39.60108 141.10387 35723 ft 398 kts 200°
2026-05-08 13:53 39.54689 141.08901 35726 ft 397 kts 200°
2026-05-08 13:53 39.49277 141.07430 35726 ft 398 kts 200°
2026-05-08 13:54 39.43866 141.05947 35723 ft 397 kts 200°
2026-05-08 13:54 39.38452 141.04469 35724 ft 397 kts 200°
2026-05-08 13:55 39.33055 141.02988 35732 ft 396 kts 201°
2026-05-08 13:56 39.24912 141.00840 35727 ft 399 kts 198°
2026-05-08 13:56 39.19321 141.00187 35726 ft 405 kts 194°
2026-05-08 13:57 39.13673 140.99858 35728 ft 406 kts 193°
2026-05-08 13:57 39.08029 140.99568 35727 ft 405 kts 193°
2026-05-08 13:58 39.02400 140.99246 35725 ft 405 kts 193°
2026-05-08 13:58 38.96803 140.98907 35725 ft 405 kts 194°
2026-05-08 13:59 38.91172 140.98562 35721 ft 404 kts 194°
2026-05-08 13:59 38.85551 140.98220 35724 ft 404 kts 194°
2026-05-08 14:00 38.79925 140.97878 35718 ft 404 kts 194°
2026-05-08 14:00 38.74310 140.97538 35721 ft 404 kts 194°
2026-05-08 14:01 38.68690 140.97195 35715 ft 404 kts 194°
2026-05-08 14:01 38.63071 140.96855 35718 ft 404 kts 194°
2026-05-08 14:02 38.57453 140.96515 35720 ft 404 kts 194°
2026-05-08 14:02 38.51821 140.96184 35717 ft 404 kts 194°
2026-05-08 14:03 38.46194 140.95842 35714 ft 404 kts 194°
2026-05-08 14:03 38.40604 140.95500 35715 ft 404 kts 194°
2026-05-08 14:04 38.34946 140.95158 35707 ft 405 kts 194°
2026-05-08 14:04 38.29354 140.94822 35709 ft 405 kts 194°
2026-05-08 14:05 38.23731 140.94486 35719 ft 405 kts 194°
2026-05-08 14:05 38.18100 140.94158 35722 ft 405 kts 194°
2026-05-08 14:06 38.12461 140.93817 35718 ft 405 kts 194°
2026-05-08 14:06 38.07774 140.93533 35718 ft 405 kts 194°
2026-05-08 14:07 38.02134 140.93196 35718 ft 405 kts 194°
2026-05-08 14:07 37.96498 140.92862 35718 ft 405 kts 194°
2026-05-08 14:08 37.90860 140.92526 35719 ft 405 kts 194°
2026-05-08 14:08 37.85216 140.92190 35718 ft 406 kts 194°
2026-05-08 14:09 37.79563 140.91855 35722 ft 407 kts 194°
2026-05-08 14:09 37.73900 140.91522 35726 ft 407 kts 194°
2026-05-08 14:10 37.68230 140.91196 35728 ft 408 kts 194°
2026-05-08 14:10 37.62589 140.90857 35728 ft 409 kts 194°
2026-05-08 14:11 37.56902 140.90516 35737 ft 409 kts 194°
2026-05-08 14:11 37.51220 140.90176 35737 ft 409 kts 194°
2026-05-08 14:12 37.45529 140.89844 35737 ft 409 kts 193°
2026-05-08 14:12 37.39846 140.89514 35734 ft 409 kts 193°
2026-05-08 14:13 37.34148 140.89182 35741 ft 409 kts 193°
2026-05-08 14:13 37.28453 140.88850 35743 ft 410 kts 193°
2026-05-08 14:14 37.22749 140.88521 35733 ft 411 kts 193°
2026-05-08 14:14 37.17037 140.88198 35738 ft 411 kts 193°
2026-05-08 14:15 37.11319 140.87868 35736 ft 411 kts 193°
2026-05-08 14:15 37.05627 140.87531 35734 ft 412 kts 193°
2026-05-08 14:16 36.99889 140.87194 35738 ft 412 kts 193°
2026-05-08 14:16 36.94154 140.86861 35729 ft 413 kts 193°
2026-05-08 14:17 36.88388 140.86535 35734 ft 414 kts 193°
2026-05-08 14:17 36.82644 140.86206 35729 ft 414 kts 193°
2026-05-08 14:18 36.76876 140.85867 35731 ft 415 kts 193°
2026-05-08 14:18 36.71091 140.85531 35727 ft 416 kts 193°
2026-05-08 14:19 36.65303 140.85196 35734 ft 417 kts 193°
2026-05-08 14:19 36.59500 140.84864 35729 ft 417 kts 193°
2026-05-08 14:20 36.53700 140.84533 35729 ft 418 kts 193°
2026-05-08 14:20 36.47886 140.84201 35729 ft 418 kts 193°
2026-05-08 14:21 36.42070 140.83869 35724 ft 418 kts 193°
2026-05-08 14:21 36.36248 140.83537 35624 ft 418 kts 193°
2026-05-08 14:21 36.33346 140.83372 35384 ft 417 kts 193°
2026-05-08 14:22 36.30440 140.83207 35143 ft 418 kts 193°
2026-05-08 14:22 36.27179 140.83020 34867 ft 419 kts 193°
2026-05-08 14:22 36.24224 140.82850 34619 ft 420 kts 193°
2026-05-08 14:22 36.21350 140.82686 34151 ft 419 kts 193°
2026-05-08 14:23 36.18436 140.82522 33349 ft 420 kts 193°
2026-05-08 14:23 36.15507 140.82354 32513 ft 421 kts 193°
2026-05-08 14:23 36.12597 140.82192 31951 ft 417 kts 193°
2026-05-08 14:23 36.09704 140.82035 31387 ft 413 kts 193°
2026-05-08 14:24 36.06852 140.81878 30818 ft 410 kts 193°
2026-05-08 14:24 36.04012 140.81720 30245 ft 407 kts 193°
2026-05-08 14:24 36.01184 140.81561 29645 ft 405 kts 193°
2026-05-08 14:24 35.98370 140.81402 29037 ft 402 kts 193°
2026-05-08 14:25 35.95588 140.81246 28472 ft 398 kts 193°
2026-05-08 14:25 35.92835 140.81092 27908 ft 395 kts 193°
2026-05-08 14:25 35.90134 140.80941 27367 ft 391 kts 193°
2026-05-08 14:25 35.87431 140.80789 26813 ft 388 kts 193°
2026-05-08 14:26 35.84737 140.80637 26263 ft 386 kts 193°
2026-05-08 14:26 35.82068 140.80486 25713 ft 383 kts 193°
2026-05-08 14:26 35.79410 140.80335 25165 ft 381 kts 193°
2026-05-08 14:26 35.76760 140.80185 24619 ft 379 kts 193°
2026-05-08 14:27 35.74174 140.79840 24045 ft 368 kts 201°
2026-05-08 14:27 35.71775 140.78924 23552 ft 354 kts 212°
2026-05-08 14:27 35.69606 140.77463 23309 ft 357 kts 218°
2026-05-08 14:27 35.67492 140.75824 23013 ft 360 kts 219°
2026-05-08 14:28 35.65383 140.74160 22738 ft 359 kts 219°
2026-05-08 14:28 35.63278 140.72493 22460 ft 358 kts 219°
2026-05-08 14:28 35.61189 140.70839 22197 ft 357 kts 219°
2026-05-08 14:28 35.59101 140.69185 21927 ft 356 kts 218°
2026-05-08 14:29 35.57041 140.67553 21664 ft 355 kts 218°
2026-05-08 14:29 35.54961 140.65906 21387 ft 354 kts 218°
2026-05-08 14:29 35.52894 140.64271 21134 ft 353 kts 218°
2026-05-08 14:29 35.50830 140.62637 20866 ft 353 kts 218°
2026-05-08 14:30 35.48769 140.61008 20599 ft 352 kts 218°
2026-05-08 14:30 35.46715 140.59385 20331 ft 351 kts 218°
2026-05-08 14:30 35.44663 140.57765 20080 ft 350 kts 218°
2026-05-08 14:30 35.42618 140.56152 19820 ft 349 kts 218°
2026-05-08 14:31 35.40581 140.54545 19564 ft 348 kts 218°
2026-05-08 14:31 35.38544 140.52939 19302 ft 347 kts 218°
2026-05-08 14:31 35.36535 140.51358 19042 ft 347 kts 217°
2026-05-08 14:32 35.32489 140.48174 18529 ft 345 kts 217°
2026-05-08 14:32 35.30471 140.46586 18274 ft 344 kts 217°
2026-05-08 14:32 35.28455 140.45002 18001 ft 344 kts 217°
2026-05-08 14:32 35.26447 140.43426 17722 ft 343 kts 217°
2026-05-08 14:33 35.25112 140.42379 17564 ft 342 kts 217°
2026-05-08 14:33 35.23114 140.40812 17303 ft 341 kts 217°
2026-05-08 14:33 35.21117 140.39246 17054 ft 340 kts 217°
2026-05-08 14:33 35.19181 140.37597 16795 ft 336 kts 223°
2026-05-08 14:34 35.17595 140.35533 16479 ft 332 kts 236°
2026-05-08 14:34 35.16355 140.33171 16100 ft 329 kts 239°
2026-05-08 14:34 35.15182 140.30770 15722 ft 328 kts 240°
2026-05-08 14:34 35.14010 140.28374 15356 ft 327 kts 240°
2026-05-08 14:35 35.12839 140.25998 14994 ft 325 kts 239°
2026-05-08 14:35 35.11686 140.23671 14634 ft 323 kts 239°
2026-05-08 14:35 35.10508 140.21296 14258 ft 322 kts 239°
2026-05-08 14:35 35.09350 140.18970 13912 ft 320 kts 239°
2026-05-08 14:36 35.08203 140.16668 13669 ft 311 kts 239°
2026-05-08 14:36 35.07105 140.14466 13498 ft 297 kts 239°
2026-05-08 14:36 35.06052 140.12357 13282 ft 285 kts 239°
2026-05-08 14:36 35.05043 140.10336 13082 ft 274 kts 240°
2026-05-08 14:37 35.04085 140.08417 12791 ft 261 kts 240°
2026-05-08 14:37 35.03164 140.06577 12481 ft 250 kts 240°
2026-05-08 14:37 35.02243 140.04734 12231 ft 251 kts 240°
2026-05-08 14:37 35.01347 140.02941 11942 ft 249 kts 240°
2026-05-08 14:38 35.00444 140.01136 11678 ft 249 kts 240°
2026-05-08 14:38 34.99547 139.99345 11383 ft 248 kts 240°
2026-05-08 14:38 34.98648 139.97550 11086 ft 247 kts 240°
2026-05-08 14:38 34.97752 139.95763 10843 ft 247 kts 240°
2026-05-08 14:39 34.96870 139.93972 10508 ft 245 kts 242°
2026-05-08 14:39 34.96272 139.92048 10278 ft 246 kts 257°
2026-05-08 14:39 34.96259 139.89955 10072 ft 251 kts 276°
2026-05-08 14:39 34.96902 139.87959 9859 ft 262 kts 295°
2026-05-08 14:40 34.98211 139.86319 9505 ft 277 kts 318°
2026-05-08 14:40 35.00033 139.85401 9392 ft 289 kts 335°
2026-05-08 14:40 35.02017 139.84836 9289 ft 294 kts 339°
2026-05-08 14:40 35.04000 139.84347 9147 ft 295 kts 340°
2026-05-08 14:41 35.06021 139.83911 9025 ft 296 kts 341°
2026-05-08 14:41 35.08087 139.83510 8898 ft 295 kts 342°
2026-05-08 14:41 35.10124 139.83140 8676 ft 295 kts 343°
2026-05-08 14:41 35.12153 139.82786 8419 ft 294 kts 343°
2026-05-08 14:42 35.14185 139.82439 8170 ft 293 kts 343°
2026-05-08 14:42 35.16200 139.82097 7923 ft 293 kts 343°
2026-05-08 14:42 35.18213 139.81757 7672 ft 292 kts 343°
2026-05-08 14:42 35.20220 139.81402 7422 ft 289 kts 341°
2026-05-08 14:43 35.22164 139.80871 7178 ft 284 kts 336°
2026-05-08 14:43 35.24084 139.80259 6928 ft 282 kts 336°
2026-05-08 14:43 35.25960 139.79656 6693 ft 281 kts 336°
2026-05-08 14:43 35.27830 139.79057 6459 ft 280 kts 336°
2026-05-08 14:44 35.29723 139.78477 6217 ft 282 kts 340°
2026-05-08 14:44 35.31721 139.78448 5965 ft 297 kts
2026-05-08 14:44 35.33595 139.79587 5733 ft 306 kts 33°
2026-05-08 14:44 35.35245 139.81243 5481 ft 306 kts 37°
2026-05-08 14:45 35.36872 139.82932 5287 ft 301 kts 36°
2026-05-08 14:45 35.38461 139.84547 5071 ft 298 kts 36°
2026-05-08 14:45 35.40036 139.86133 4931 ft 287 kts 35°
2026-05-08 14:45 35.41549 139.87647 4802 ft 276 kts 35°
2026-05-08 14:46 35.43019 139.89111 4595 ft 270 kts 35°
2026-05-08 14:46 35.44411 139.90637 4353 ft 267 kts 40°
2026-05-08 14:46 35.45724 139.92231 4110 ft 263 kts 41°
2026-05-08 14:46 35.47007 139.93802 3872 ft 259 kts 41°
2026-05-08 14:47 35.48280 139.95361 3637 ft 259 kts 41°
2026-05-08 14:47 35.49554 139.96919 3404 ft 258 kts 42°
2026-05-08 14:47 35.50796 139.98440 3229 ft 251 kts 41°
2026-05-08 14:47 35.52007 139.99927 3104 ft 242 kts 41°
2026-05-08 14:48 35.53288 140.01189 2872 ft 231 kts 20°
2026-05-08 14:48 35.54771 140.01421 2698 ft 205 kts 339°
2026-05-08 14:48 35.55934 140.00651 2624 ft 182 kts 308°
2026-05-08 14:48 35.56643 139.99445 2578 ft 171 kts 294°
2026-05-08 14:49 35.57037 139.98095 2469 ft 168 kts 273°
2026-05-08 14:49 35.57029 139.96673 2254 ft 165 kts 264°
2026-05-08 14:49 35.57008 139.95305 2020 ft 155 kts 267°
2026-05-08 14:49 35.57008 139.94013 1805 ft 147 kts 266°
2026-05-08 14:50 35.57007 139.92769 1651 ft 146 kts 267°
2026-05-08 14:50 35.57005 139.91519 1484 ft 146 kts 267°
2026-05-08 14:50 35.57001 139.90274 1336 ft 144 kts 268°
2026-05-08 14:50 35.56999 139.89094 1176 ft 133 kts 267°
2026-05-08 14:51 35.56999 139.88006 1001 ft 120 kts 267°
2026-05-08 14:51 35.56979 139.87016 989 ft 117 kts 266°
2026-05-08 14:51 35.56801 139.86020 913 ft 123 kts 251°
2026-05-08 14:51 35.56405 139.85085 711 ft 123 kts 235°
2026-05-08 14:52 35.55853 139.84294 529 ft 123 kts 224°
2026-05-08 14:52 35.54608 139.82862 247 ft 122 kts 227°
2026-05-08 14:52 35.53990 139.82139 90 ft 123 kts 224°
2026-05-08 14:53 35.53424 139.81495 54 ft 93 kts 223°
2026-05-08 14:53 35.53042 139.81066 47 ft 56 kts 222°
2026-05-08 14:53 35.52825 139.80820 49 ft 22 kts 226°
2026-05-08 14:53 35.52793 139.80768 49 ft 0 kts 237°
2026-05-08 14:54 35.52791 139.80764 49 ft 4 kts 238°
2026-05-08 14:54 35.52767 139.80712 50 ft 8 kts 241°
2026-05-08 14:54 35.52739 139.80641 50 ft 10 kts 246°
2026-05-08 14:54 35.52708 139.80553 51 ft 12 kts 248°
2026-05-08 14:55 35.52680 139.80457 49 ft 9 kts 260°
2026-05-08 14:55 35.52695 139.80391 52 ft 8 kts 306°
2026-05-08 14:55 35.52740 139.80334 50 ft 10 kts 325°
2026-05-08 14:55 35.52804 139.80353 52 ft 11 kts 37°
2026-05-08 14:56 35.52872 139.80428 48 ft 15 kts 42°
2026-05-08 14:56 35.52945 139.80509 50 ft 8 kts 42°
2026-05-08 14:56 35.52996 139.80525 51 ft 9 kts 348°
2026-05-08 14:56 35.53061 139.80483 54 ft 12 kts 330°
2026-05-08 14:57 35.53153 139.80418 49 ft 18 kts 330°
2026-05-08 14:57 35.53279 139.80329 45 ft 24 kts 330°
2026-05-08 14:57 35.53437 139.80217 39 ft 29 kts 330°
2026-05-08 14:57 35.53613 139.80091 30 ft 28 kts 329°
2026-05-08 14:58 35.53752 139.79993 27 ft 22 kts 330°
2026-05-08 14:58 35.53899 139.79889 26 ft 26 kts 329°
2026-05-08 14:58 35.54057 139.79776 27 ft 27 kts 330°
2026-05-08 14:58 35.54225 139.79658 27 ft 29 kts 329°
2026-05-08 14:59 35.54401 139.79532 29 ft 30 kts 330°
2026-05-08 14:59 35.54566 139.79411 32 ft 8 kts 314°
2026-05-08 14:59 35.54571 139.79359 34 ft 6 kts 252°
2026-05-08 15:00 35.54536 139.79286 37 ft 10 kts 239°
2026-05-08 15:00 35.54500 139.79212 41 ft 10 kts 239°
2026-05-08 15:00 35.54468 139.79145 43 ft 9 kts 240°
2026-05-08 15:00 35.54424 139.79052 45 ft 17 kts 240°
2026-05-08 15:01 35.54358 139.78912 41 ft 21 kts 240°
2026-05-08 15:01 35.54276 139.78740 35 ft 23 kts 239°
2026-05-08 15:01 35.54219 139.78619 30 ft 10 kts 242°
2026-05-08 15:01 35.54233 139.78545 30 ft 10 kts 320°
2026-05-08 15:02 35.54298 139.78497 31 ft 12 kts 330°
2026-05-08 15:02 35.54381 139.78438 30 ft 16 kts 330°
2026-05-08 15:02 35.54486 139.78363 30 ft 19 kts 330°
2026-05-08 15:02 35.54590 139.78289 30 ft 11 kts 330°
2026-05-08 15:03 35.54653 139.78271 30 ft 10 kts 25°
2026-05-08 15:03 35.54697 139.78351 29 ft 9 kts 60°
2026-05-08 15:03 35.54718 139.78395 29 ft 5 kts 59°
2026-05-08 15:03 35.54720 139.78399 29 ft 0 kts 59°